Orbital elements:
2016 RO17                                                Earth MOID = 0.0056 AU
Epoch 2016 July 31.0 TT = JDT 2457600.5                 MPC
M 332.08919              (2000.0)            P               Q
n   0.33534713     Peri.  246.07963     +0.58342343     -0.81182362
a   2.0518219      Node   168.14055     +0.78072192     +0.55257016
e   0.6304260      Incl.    6.60931     +0.22380881     +0.18870249
P   2.94           H   26.3           G   0.15           U   6
Residuals in seconds of arc
160905 G96  0.2-  0.3+    160906 703  0.8-  0.9+    160906 113  0.6-  0.6+
160905 G96  0.5+  0.4-    160906 703  0.7+  0.6+    160906 113  0.6-  0.7+
160905 G96  0.0   0.7-    160906 H36 (3.0+  0.0 )   160906 113  0.4-  1.5+
160905 G96 (3.0-  2.3+)   160906 G58  0.1+  0.2-    160907 204  0.2-  0.3+
160905 691  0.0   0.2+    160906 H36  0.5-  0.6+    160907 204  0.6-  0.0
160905 G96  0.3-  0.2+    160906 H36  1.2+  0.4-    160907 246  0.5+  0.2-
160905 691  1.2+  0.2-    160906 691  1.7-  0.3+    160907 246 (2.2-  1.7+)
160905 G96  0.3-  0.2-    160906 H36 (2.9-  1.0+)   160907 246 (2.7-  1.7+)
160905 G96  0.4-  0.6+    160906 H36  0.9-  0.6+    160907 246  1.2-  0.8+
160905 G96  0.3+  0.2+    160906 691  0.1+  0.5-    160907 246  1.5-  1.1+
160905 691  0.1+  0.4-    160906 G58  0.2+  0.2-    160907 246  1.7-  0.6+
160905 291  0.1-  0.5+    160906 G58  0.1-  0.2-    160907 246 (2.2-  1.3+)
160905 291  0.1-  0.5+    160906 691  0.7+  0.3-    160907 246  0.2+  0.0
160905 291  0.2-  0.7+    160906 A17  0.0   0.9-    160907 246  1.0-  0.5+
160905 104  0.6-  0.2-    160906 C77  1.1-  1.2-    160907 246 (0.6-  2.0+)
160905 104  0.2-  0.1-    160906 C77  0.2+  0.3+    160907 246  0.6-  0.8+
160905 104  0.2-  0.1+    160906 A17  1.2+  0.4-    160907 246 (2.7-  1.3+)
160906 H21  0.0   0.4+    160906 C77  0.1-  0.2+    160907 246  0.6-  0.6+
160906 H21  0.2+  0.2+    160906 J95  0.3+  0.2-    160907 246  0.6-  0.6+
160906 H21  0.4+  0.1-    160906 A17  0.0   0.5-    160907 246  0.6+  0.1-
160906 H21  0.2+  0.1-    160906 J95  0.9+  0.7-    160907 246  0.9+  0.2+
160906 G96  0.2+  0.2-    160906 113  0.5-  0.1+    160907 246  0.1-  0.1+
160906 G96  0.1-  0.1+    160906 J95  0.6+  0.4-    160907 246  0.2+  0.1+
160906 G96  0.5-  1.4+    160906 113  1.1-  0.3+    160907 J95  0.7+  0.7-
160906 G58  0.1-  0.1-    160906 113  0.8-  0.1+    160907 J95  0.0   0.9+
160906 703  0.0   0.1+    160906 113  0.3-  0.4+    160907 J95  0.3+  0.2+

Ephemeris:
2016 RO17                a,e,i = 2.05, 0.63, 7                   q = 0.7583
Date    TT    R. A. (2000) Decl.     Delta      r     Elong.  Phase     V
2016 08 08    22 01 01.2 +02 17 50   0.3079  1.3046   158.0    16.9    25.2
...
2016 08 23    21 57 51.9 +04 07 21   0.1523  1.1585   164.2    13.7    23.3
...
2016 08 31    21 50 40.4 +05 59 03   0.07591 1.0816   161.2    17.5    21.8
...
2016 09 06    21 14 27.8 +14 23 57   0.02074 1.0254   146.6    32.7    19.3
2016 09 07    20 34 38.3 +22 37 37   0.01216 1.0162   133.7    45.8    18.5
2016 09 08    17 05 00.3 +43 49 03   0.0060631.0070    85.7    93.9    18.6
...
2016 09 14    10 20 17.9 +01 16 08   0.05455 0.9539    17.1   161.9    31.6
...
2016 09 22    10 12 02.3 -01 09 40   0.1303  0.8887    26.3   150.0    30.0
...
2016 10 07    10 19 50.1 -02 03 09   0.2836  0.7951    37.9   129.4    28.7

A. U. Tomatic                (C) Copyright 2016 MPC           M.P.E.C. 2016-R83




More information about the Iaude mailing list